Flag for Italy Weather past 2 weeks in Catania, Italy

Now
45 °F

Passing clouds.


Feels Like: 41 °F
Forecast: 50 / 61 °F
Wind: 6 mph from Southwest

Location: Catania / Fontanarossa

Current Time: Jan 30, 2015 at 3:42:17 AM

Latest Report: Jan 30, 2015 at 2:50 AM


Visibility: N/A

Pressure: 29.65 "Hg

Humidity: 87%

Dew point: 41 °F

Location of CataniaLocation

Historic Weather in Catania — Graph

°F

Catania temperature yesterday

Maximum temperature yesterday: 57 °F (at 12:50 PM)
Minimum temperature yesterday: 36 °F (at 4:20 AM)
Average temperature yesterday: 46 °F

Past Weeks' High & Low Weather Summary

 TemperatureHumidityPressure
High64 °F (Jan 16, 1:50 PM)100% (Jan 18, 4:20 AM)30.27 "Hg (Jan 18, 4:20 AM)
Low36 °F (Jan 15, 5:20 AM)39% (Jan 16, 1:20 PM)29.50 "Hg (Jan 23, 2:50 PM)
Average48 °F81%29.87 "Hg
* Reported Jan 15 2:20 AM — Jan 30 2:20 AM, Catania, Weather by CustomWeather, © 2014

Note: Actual official high and low records may vary slightly from our data, if they occured in-between our weather recording intervals... More about our weather records

Advertising

Catania weather history for previous 24 hours

 ConditionsComfort  
Time TempWeatherWind HumidityBarometerVisibility
2:20 AM
Jan 30
46 °FPassing clouds.6 mph82%29.65 "HgN/A
1:50 AM46 °FPassing clouds.6 mph82%29.68 "HgN/A
1:20 AM46 °FPassing clouds.3 mph76%29.68 "HgN/A
12:50 AM48 °FPassing clouds.7 mph66%29.68 "HgN/A
12:20 AM46 °FClear.9 mph71%29.71 "Hg10 mi
11:50 PM
Jan 29
46 °FClear.9 mph66%29.71 "Hg10 mi
11:20 PM45 °FPassing clouds.8 mph71%29.71 "HgN/A
10:50 PM43 °FClear.8 mph76%29.71 "Hg10 mi
10:20 PM43 °FPassing clouds.10 mph76%29.74 "HgN/A
9:50 PM43 °FPassing clouds.9 mph76%29.74 "HgN/A
9:20 PM43 °FPassing clouds.8 mph76%29.74 "Hg5 mi
8:50 PM41 °FPassing clouds.5 mph76%29.77 "HgN/A
8:20 PM43 °FPassing clouds.8 mph71%29.77 "HgN/A
7:50 PM43 °FPassing clouds.7 mph71%29.77 "HgN/A
7:20 PM46 °FPassing clouds.5 mph53%29.77 "HgN/A
6:50 PM48 °FPassing clouds.3 mph50%29.77 "HgN/A
6:20 PM46 °FPassing clouds.6 mph53%29.74 "HgN/A
5:50 PM46 °FPassing clouds.8 mph57%29.74 "HgN/A
5:20 PM48 °FPassing clouds.10 mph58%29.77 "HgN/A
4:50 PM50 °FPassing clouds.10 mph54%29.77 "HgN/A
4:20 PM52 °FPassing clouds.10 mph50%29.77 "HgN/A
3:50 PM52 °FPassing clouds.13 mph50%29.74 "HgN/A
3:20 PM52 °FPassing clouds.13 mph50%29.74 "HgN/A
2:50 PM54 °FPassing clouds.13 mph47%29.74 "HgN/A
2:20 PM55 °FPassing clouds.15 mph47%29.74 "HgN/A
1:50 PM57 °FPassing clouds.13 mph44%29.74 "HgN/A
1:20 PM57 °FSunny.15 mph44%29.77 "Hg10 mi
12:50 PM57 °FSunny.6 mph48%29.77 "Hg10 mi
12:20 PM55 °FPassing clouds.5 mph51%29.77 "HgN/A
11:50 AM55 °FPassing clouds.7 mph47%29.80 "HgN/A
11:20 AM55 °FPassing clouds.5 mph51%29.80 "HgN/A
10:50 AM54 °FPassing clouds.3 mph47%29.80 "HgN/A
10:20 AM52 °FPassing clouds.6 mph54%29.80 "HgN/A
9:50 AM50 °FSunny.2 mph62%29.80 "Hg10 mi
9:20 AM48 °FPassing clouds.3 mph66%29.80 "HgN/A
8:50 AM46 °FPassing clouds.3 mph71%29.80 "HgN/A
8:20 AM41 °FSunny.3 mph87%29.77 "Hg10 mi
7:50 AM37 °FPassing clouds.5 mph87%29.77 "HgN/A
7:20 AM37 °FPassing clouds.3 mph81%29.74 "HgN/A
6:50 AM37 °FPassing clouds.8 mph81%29.74 "HgN/A
6:20 AM36 °FPassing clouds.3 mph87%29.74 "HgN/A
5:50 AM36 °FPassing clouds.3 mph87%29.74 "HgN/A
5:20 AM37 °FPassing clouds.6 mph87%29.71 "HgN/A
4:50 AM39 °FPassing clouds.6 mph87%29.68 "HgN/A
4:20 AM36 °FPassing clouds.5 mph93%29.71 "HgN/A
3:50 AM37 °FPassing clouds.1 mph87%29.71 "HgN/A
3:20 AM39 °FPassing clouds.2 mph87%29.71 "HgN/A
Weather by CustomWeather, © 2014

See weather overviewHow to use our weather pages